Regional Weather Roundup
Issued by NWS

Home | Current Version | Previous Version | Text Only | Print | Product List | Glossary Off
Versions: 1 2 3 4 5 6 7 8 9 10 11 12 13 14 15 16 17 18 19 20 21 22 23 24 25 26 27 28 29 30 31 32 33 34 35 36 37 38 39 40 41 42 43 44 45 46 47 48 49 50

000
ASUS43 KMPX 011810
RWRMN
WEATHER ROUNDUP FOR MINNESOTA
NATIONAL WEATHER SERVICE TWIN CITIES/CHANHASSEN MN
100 PM CDT SAT AUG 01 2015


NOTE: "FAIR" INDICATES FEW OR NO CLOUDS BELOW 12,000 FEET WITH NO
SIGNIFICANT WEATHER AND/OR OBSTRUCTIONS TO VISIBILITY. N/A MEANS
CURRENT SKY AND/OR WEATHER CONDITIONS ARE NOT AVAILABLE.

MNZ060>063-068>070-011900-
   Twin Cities Metro

CITY           SKY/WX    TMP DP  RH WIND       PRES   REMARKS
TWIN CITIES    MOSUNNY   82  53  36 W9        29.95F
6HR MIN TEMP:  67; 6HR MAX TEMP:  83;

ST PAUL        SUNNY     83  53  35 W10       29.94F
CRYSTAL        SUNNY     83  54  36 W8        29.94F
BLAINE         SUNNY     82  54  36 W5        29.94F
LAKEVILLE      SUNNY     81  57  44 CALM      29.96F
EDEN PRAIRIE   SUNNY     83  58  42 W3        29.94F
6HR MIN TEMP:  65; 6HR MAX TEMP:  83;

SOUTH ST PAUL  SUNNY     82  55  39 W8        29.95F
LAKE ELMO      FAIR      81  57  44 W6        29.96F
$$
MNZ001>005-007-008-013>017-022>024-027-028-011900-
   Northwest Minnesota

CITY           SKY/WX    TMP DP  RH WIND       PRES   REMARKS
BEMIDJI        SUNNY     77  50  38 W7        29.90F
HALLOCK        SUNNY     81  52  36 SW12      29.83F
ROSEAU         SUNNY     79  55  44 SW9G21    29.85F
WARROAD        SUNNY     77  55  47 W12       29.85F
THIEF RVR FALL SUNNY     77  55  47 SW8       29.87F
CROOKSTON      SUNNY     79  55  44 SW9       29.87F
FOSSTON        SUNNY     79  55  44 SW9       29.90F
DETROIT LAKES  SUNNY     79  50  36 SW6       29.93F
MOORHEAD       SUNNY     81  55  41 SE7       29.89F
PARK RAPIDS    MOSUNNY   81  52  36 VRB5      29.92F
MAHNOMEN       FAIR      77  56  48 S7        29.89F
$$
MNZ006-009>011-018-025>026-011900-
   North Central Minnesota

CITY           SKY/WX    TMP DP  RH WIND       PRES   REMARKS
BAUDETTE       SUNNY     78  48  34 W10       29.85F
FLAG ISLAND    SUNNY     75  45  33 W18       29.81F
INTL FALLS     SUNNY     77  50  38 W14G21    29.84F
6HR MIN TEMP:  55; 6HR MAX TEMP:  77;

WASKISH        SUNNY     77  61  57 SW10      29.88F
BIG FORK       SUNNY     79  46  31 W10G20    29.89F
LONGVILLE      SUNNY     79  54  41 W5        29.92F
GRAND RAPIDS   MOSUNNY   75  50  41 W9        29.91F
CRANE LAKE     PTSUNNY   73  46  38 NW7       29.86F
ORR            MOSUNNY   77  45  31 NW7       29.85F
COOK           MOSUNNY   77  48  36 W9        29.88F
WALKER         FAIR      77  52  41 W9        29.90F
$$
MNZ012-019>021-037-011900-
   Northeast Minnesota

CITY           SKY/WX    TMP DP  RH WIND       PRES   REMARKS
DULUTH         MOSUNNY   79  48  33 W17G24    29.90F
6HR MIN TEMP:  60; 6HR MAX TEMP:  80;

ELY            MOSUNNY   75  46  35 W10G18    29.86F
HIBBING        SUNNY     78  47  33 W8G17     29.89F
EVELETH        MOSUNNY   77  45  31 NW12      29.90F
DULUTH HARBOR  MOSUNNY   79  54  41 W14G22    29.88F
TWO HARBORS    MOSUNNY   79  55  44 W8        29.86F
SILVER BAY     MOSUNNY   79  48  34 NW8       29.85F
GRAND MARAIS     N/A     73  49  42 W8G20     29.80F
G MARAIS ARPRT MOSUNNY   70  48  46 W8G18     29.86F
$$
MNZ029>031-032-039>041-046>048-054>057-064-011900-
   West Central Minnesota

CITY           SKY/WX    TMP DP  RH WIND       PRES   REMARKS
FERGUS FALLS   SUNNY     81  55  41 S9        29.89F
WHEATON        SUNNY     79  64  61 SE10      29.91F
MORRIS         MOSUNNY   81  64  57 S8        29.92F
ALEXANDRIA     MOSUNNY   80  54  40 SE3       29.95F
ELBOW LAKE     FAIR      80  57  44 S7        29.92F
WADENA         SUNNY     81  52  36 SW7       29.92F
GLENWOOD       MOSUNNY   81  54  39 S3        29.94F
APPLETON       MOSUNNY   82  63  51 SE8       29.92F
BENSON         PTSUNNY   81  63  54 S8        29.93F
ORTONVILLE     SUNNY     79  63  57 SE3       29.93S
MADISON        SUNNY     81  64  57 S8        29.93F
WILLMAR        FAIR      79  64  61 SE5       29.96F
$$
MNZ033>034-036-042>043-049>051-058-059-011900-
   Central Minnesota

CITY           SKY/WX    TMP DP  RH WIND       PRES   REMARKS
ST CLOUD       SUNNY     82  51  34 W5        29.94F
6HR MIN TEMP:  60; 6HR MAX TEMP:  82;

SAUK CENTRE    FAIR      79  55  42 CALM      29.95F
PAYNESVILLE    SUNNY     77  56  48 E6        29.95F
AITKIN         SUNNY     79  54  41 W6        29.92S
PINE RIVER     SUNNY     79  55  44 W5        29.95F
BRAINERD       SUNNY     80  51  36 W9        29.93F
STAPLES        SUNNY     81  52  36 W6        29.93F
LITTLE FALLS   SUNNY     79  46  31 CALM      29.94F
LITCHFIELD     SUNNY     82  61  47 CALM      29.95F
BUFFALO        SUNNY     80  54  41 CALM      29.96F
MAPLE LAKE     SUNNY     81  59  47 SW5       29.97F
$$
MNZ037-044-045-052-053-011900-
   East Central Minnesota

CITY           SKY/WX    TMP DP  RH WIND       PRES   REMARKS
PRINCETON      SUNNY     82  54  36 W9        29.94F
MORA           SUNNY     77  50  38 W9        29.96F
CAMBRIDGE      SUNNY     82  57  42 W7        29.93F
RUSH CITY      SUNNY     80  55  41 W7        29.94F
MOOSE LAKE     SUNNY     77  52  41 W8        29.90F
HINCKLEY       FAIR      79  54  41 W6        29.93F
CLOQUET        MOSUNNY   79  46  31 W9        29.91F
MCGREGOR       SUNNY     79  52  38 SW9       29.93S
$$
MNZ071>073-080-081-089-090-097-098-011900-
   Southwest Minnesota

CITY           SKY/WX    TMP DP  RH WIND       PRES   REMARKS
MONTEVIDEO     MOSUNNY   82  66  57 SW7       29.95F
GRANITE FALLS  MOSUNNY   80  68  65 SE6       29.96F
CANBY          MOSUNNY   83  70  65 S6        29.94F
MARSHALL       MOSUNNY   84  66  54 W14       29.96F
REDWOOD FALLS  PTSUNNY   78  65  63 S7        29.96F
OLIVIA         PTSUNNY   73  63  68 S3        29.95F
PIPESTONE      MOSUNNY   81  64  57 SW13      29.98F
WINDOM         MOSUNNY   84  66  54 SW10      29.98F
WORTHINGTON    MOSUNNY   81  64  57 W14       30.00F
JACKSON        SUNNY     82  68  61 SW8       30.00F
TRACY          MOSUNNY   84  70  61 SW10      29.97F
SLAYTON        MOSUNNY   83  63  49 SW10      29.99F
$$
MNZ065>067-074>077-082>085-091>093-011900-
   South Central Minnesota

CITY           SKY/WX    TMP DP  RH WIND       PRES   REMARKS
MANKATO        SUNNY     81  64  57 S3        29.96F
NEW ULM        MOSUNNY   81  63  54 S3        29.95F
ST JAMES       MOSUNNY   84  68  58 S5        29.97F
FAIRMONT       MOSUNNY   84  64  51 SW6       29.97F
GLENCOE        SUNNY     82  64  54 CALM      29.95F
FARIBAULT      SUNNY     81  64  57 CALM      29.97F
OWATONNA       SUNNY     79  64  61 CALM      29.97F
WASECA         SUNNY     77  63  61 CALM      29.98F
ALBERT LEA     SUNNY     81  64  57 SW3       29.98F
$$
MNZ078>079-086>088-094>096-011900-
   Southeast Minnesota

CITY           SKY/WX    TMP DP  RH WIND       PRES   REMARKS
ROCHESTER      MOSUNNY   78  68  71 W6        29.98F
6HR MIN TEMP:  61; 6HR MAX TEMP:  79;

RED WING       SUNNY     82  54  36 NW5       29.94F
STANTON        SUNNY     81  60  49 CALM      29.95F
DODGE CENTER   MOSUNNY   77  64  65 CALM      29.98F
WINONA         MOSUNNY   79  61  53 CALM      29.95F
AUSTIN         SUNNY     82  64  54 W6        29.98F
PRESTON        SUNNY     78  64  61 NW7       29.99F
$$
ABBREVIATIONS USED IN REMARKS
   TC - TEMPERATURES IN CELSIUS
  WCI - WIND CHILL INDEX
   HX - HEAT INDEX
  VSB - VISIBILITY
$$



USA.gov is the U.S. government's official web portal to all federal, state and local government web resources and services.